Skip Page Navigation
NASA JPL Caltech
NASA Logo - Jet Propulsion Laboratory + View the NASA Portal
+ Near-Earth Object (NEO) Program
Search JPL
JPL Home Earth Solar System Stars & Galaxies Technology
JPL Solar System Dynamics
BODIES ORBITS EPHEMERIDES TOOLS PHYSICAL DATA DISCOVERY FAQ SITE MAP
JPL Small-Body Database Browser
Search: [ help ]  
(2006 HT30)
Classification: Apollo [NEO, PHA]          SPK-ID: 3330683
Ephemeris | Orbit Diagram | Orbital Elements | Physical Parameters | Close-Approach Data ]

[ hide orbit diagram ]
Orbit Diagram
Note: Make sure you have Java enabled on your browser to see the applet. This applet is provided as a 3D orbit visualization tool. The applet was implemented using 2-body methods, and hence should not be used for determining accurate long-term trajectories (over several years or decades) or planetary encounter circumstances. For accurate long-term ephemerides, please instead use our Horizons system.
Orbit Viewer

Additional Notes: the orbits shown in the applet are color coded. The planets are white lines, and the asteroid/comet is a blue line. The bright white line indicates the portion of the orbit that is above the ecliptic plane, and the darker portion is below the ecliptic plane. Likewise for the asteroid/comet orbit, the light blue indicates the portion above the ecliptic plane, and the dark blue the portion below the ecliptic plane.

Orbit Viewer applet originally written and kindly provided by Osamu Ajiki (AstroArts), and further modified by Ron Baalke (JPL).


Orbital Elements at Epoch 2456400.5 (2013-Apr-18.0) TDB
Reference: JPL 18 (heliocentric ecliptic J2000)
 Element Value Uncertainty (1-sigma)   Units 
e .6171553522296949 1.4399e-07  
a 2.565765426319886 4.8124e-08 AU
q .9822895609006635 3.5428e-07 AU
i 1.640681127107706 1.139e-05 deg
node 73.61784308005375 0.00041957 deg
peri 224.0526044880974 0.00041645 deg
M 225.8446540577302 2.9645e-05 deg
tp 2456959.908849931364
(2014-Oct-29.40884993)
0.00013903 JED
period 1501.149168233316
4.11
4.2234e-05
1.156e-07
d
yr
n .2398162738375158 6.7471e-09 deg/d
Q 4.149241291739108 7.7825e-08 AU
  Orbit Determination Parameters
   # obs. used (total)      77  
   data-arc span      1633 days (4.47 yr)  
   first obs. used      2002-05-09  
   last obs. used      2006-10-28  
   planetary ephem.      DE405  
   SB-pert. ephem.      SB405-CPV-2  
   condition code      0  
   fit RMS      .61658  
   data source      ORB  
   producer      Otto Matic  
   solution date      2011-Sep-14 20:09:25  

Additional Information
 Earth MOID = .00984368 AU 
 T_jup = 3.133 
[ show covariance matrix ]

Ephemeris | Orbit Diagram | Orbital Elements | Physical Parameters | Close-Approach Data ]

Physical Parameter Table
Parameter Symbol Value Units Sigma Reference Notes
absolute magnitude H 20.293 mag .41725 18 autocmod 2.5a

[ show close-approach data ]
Ephemeris | Orbit Diagram | Orbital Elements | Physical Parameters | Close-Approach Data ]
ABOUT SSD CREDITS/AWARDS PRIVACY/COPYRIGHT GLOSSARY LINKS
FirstGov 2013-May-20 12:55 UT
(server date/time)  
NASA Home Page
Site Manager:   Donald K. Yeomans
Webmaster  Alan B. Chamberlin